| time (UTC) | temp C | wind direction | speed KPH | gust KPH | rain 1hr cm | rain 24hr cm | rain mn cm | humidity % | barometer mb |
| 20260502164033 | 16 | 119 | 11.3 | 19.3 | 0.00 | 0.00 | 0.00 | 32 | 1017.6 |
| 20260502163532 | 16 | 134 | 11.3 | 19.3 | 0.00 | 0.00 | 0.00 | 34 | 1017.7 |
| 20260502163044 | 16 | 135 | 9.7 | 19.3 | 0.00 | 0.00 | 0.00 | 34 | 1017.7 |
| 20260502162530 | 16 | 132 | 12.9 | 19.3 | 0.00 | 0.00 | 0.00 | 35 | 1017.7 |
| 20260502162027 | 15 | 153 | 14.5 | 19.3 | 0.00 | 0.00 | 0.00 | 37 | 1017.8 |
| 20260502161526 | 15 | 136 | 11.3 | 17.7 | 0.00 | 0.00 | 0.00 | 38 | 1017.8 |
| 20260502161025 | 15 | 130 | 9.7 | 16.1 | 0.00 | 0.00 | 0.00 | 39 | 1018.0 |
| 20260502160525 | 13 | 150 | 12.9 | 16.1 | 0.00 | 0.00 | 0.00 | 40 | 1018.0 |
| 20260502152010 | 8 | 162 | 3.2 | 9.7 | 0.00 | 0.00 | 0.00 | 51 | 1018.6 |
| 20260502151524 | 8 | 146 | 1.6 | 8.0 | 0.00 | 0.00 | 0.00 | 51 | 1018.7 |
| 20260502151007 | 7 | 181 | 3.2 | 6.4 | 0.00 | 0.00 | 0.00 | 51 | 1018.8 |
| 20260502150505 | 7 | 191 | 3.2 | 8.0 | 0.00 | 0.00 | 0.00 | 49 | 1018.9 |
| 20260502130539 | -4 | 190 | 1.6 | 3.2 | 0.00 | 0.00 | 0.00 | 1 | 1018.8 |
| 20260502123529 | -2 | 190 | 0.0 | 0.0 | 0.00 | 0.00 | 0.00 | 1 | 1018.7 |
| 20260502123036 | -2 | 190 | 0.0 | 0.0 | 0.00 | 0.00 | 0.00 | 1 | 1018.6 |
| 20260502122530 | -2 | 190 | 0.0 | 0.0 | 0.00 | 0.00 | 0.00 | 1 | 1018.6 |
| 20260502122028 | -3 | 190 | 0.0 | 3.2 | 0.00 | 0.00 | 0.00 | 1 | 1018.6 |
| 20260502121524 | -3 | 190 | 0.0 | 3.2 | 0.00 | 0.00 | 0.00 | 1 | 1018.6 |
| 20260502121022 | -3 | 190 | 0.0 | 3.2 | 0.00 | 0.00 | 0.00 | 1 | 1018.5 |
| 20260502120521 | -3 | 190 | 0.0 | 3.2 | 0.00 | 0.00 | 0.00 | 1 | 1018.5 |
| 20260502115518 | -2 | 190 | 0.0 | 0.0 | 0.00 | 0.00 | 0.00 | 1 | 1018.4 |
| 20260502115016 | -2 | 190 | 0.0 | 6.4 | 0.00 | 0.00 | 0.00 | 1 | 1018.4 |
| 20260502114515 | -2 | 190 | 1.6 | 6.4 | 0.00 | 0.00 | 0.00 | 1 | 1018.5 |
| 20260502114014 | -2 | 190 | 3.2 | 6.4 | 0.00 | 0.00 | 0.00 | 1 | 1018.4 |
| 20260502113514 | -2 | 191 | 0.0 | 4.8 | 0.00 | 0.00 | 0.00 | 1 | 1018.5 |
| 20260502113011 | -2 | 190 | 1.6 | 3.2 | 0.00 | 0.00 | 0.00 | 1 | 1018.5 |
| 20260502112509 | -3 | 190 | 0.0 | 3.2 | 0.00 | 0.00 | 0.00 | 1 | 1018.5 |
| 20260502112007 | -3 | 190 | 1.6 | 3.2 | 0.00 | 0.00 | 0.00 | 1 | 1018.4 |
| 20260502111510 | -3 | 190 | 1.6 | 3.2 | 0.00 | 0.00 | 0.00 | 1 | 1018.4 |
| 20260502111005 | -3 | 190 | 0.0 | 1.6 | 0.00 | 0.00 | 0.00 | 6 | 1018.4 |
| 20260502110504 | -3 | 190 | 0.0 | 0.0 | 0.00 | 0.00 | 0.00 | 12 | 1018.4 |
| 20260502110002 | -3 | 190 | 0.0 | 0.0 | 0.00 | 0.00 | 0.00 | 16 | 1018.5 |
| 20260502105501 | -2 | 190 | 0.0 | 3.2 | 0.00 | 0.00 | 0.00 | 18 | 1018.4 |
| 20260502105059 | -2 | 190 | 1.6 | 3.2 | 0.00 | 0.00 | 0.00 | 18 | 1018.4 |
| 20260502104558 | -1 | 190 | 1.6 | 3.2 | 0.00 | 0.00 | 0.00 | 5 | 1018.4 |
| 20260502104056 | 0 | 190 | 0.0 | 0.0 | 0.00 | 0.00 | 0.00 | 1 | 1018.4 |
| 20260502103555 | 0 | 190 | 0.0 | 3.2 | 0.00 | 0.00 | 0.00 | 1 | 1018.4 |
| 20260502103104 | -1 | 190 | 0.0 | 4.8 | 0.00 | 0.00 | 0.00 | 1 | 1018.5 |
| 20260502102552 | -1 | 190 | 1.6 | 4.8 | 0.00 | 0.00 | 0.00 | 1 | 1018.4 |
| 20260502102051 | -1 | 190 | 1.6 | 4.8 | 0.00 | 0.00 | 0.00 | 1 | 1018.5 |
| 20260502101559 | -1 | 190 | 0.0 | 3.2 | 0.00 | 0.00 | 0.00 | 1 | 1018.3 |
| 20260502101047 | -1 | 190 | 0.0 | 3.2 | 0.00 | 0.00 | 0.00 | 1 | 1018.3 |
| 20260502100547 | -1 | 190 | 1.6 | 3.2 | 0.00 | 0.00 | 0.00 | 8 | 1018.3 |
| 20260502100108 | -1 | 190 | 0.0 | 3.2 | 0.00 | 0.00 | 0.00 | 16 | 1018.4 |
| 20260502091534 | 0 | 190 | 0.0 | 0.0 | 0.00 | 0.00 | 0.00 | 40 | 1018.1 |
| 20260502091034 | 0 | 190 | 0.0 | 0.0 | 0.00 | 0.00 | 0.00 | 41 | 1018.2 |
| 20260502090532 | 0 | 190 | 0.0 | 0.0 | 0.00 | 0.00 | 0.00 | 39 | 1018.1 |
| 20260502071518 | 1 | 218 | 1.6 | 6.4 | 0.00 | 0.00 | 0.00 | 51 | 1017.7 |
| 20260502071016 | 2 | 181 | 1.6 | 6.4 | 0.00 | 0.00 | 0.00 | 53 | 1017.7 |
| 20260502070516 | 2 | 181 | 3.2 | 6.4 | 0.00 | 0.00 | 0.00 | 52 | 1017.6 |
| 20260502070015 | 2 | 181 | 3.2 | 6.4 | 0.00 | 0.00 | 0.00 | 52 | 1017.6 |
| 20260502065514 | 2 | 181 | 3.2 | 6.4 | 0.00 | 0.00 | 0.00 | 54 | 1017.5 |
| 20260502065013 | 2 | 196 | 3.2 | 6.4 | 0.00 | 0.00 | 0.00 | 54 | 1017.5 |
| 20260502064512 | 2 | 152 | 3.2 | 8.0 | 0.00 | 0.00 | 0.00 | 55 | 1017.4 |
| 20260502064017 | 2 | 159 | 4.8 | 9.7 | 0.00 | 0.00 | 0.00 | 55 | 1017.3 |
| 20260502063511 | 2 | 159 | 4.8 | 9.7 | 0.00 | 0.00 | 0.00 | 56 | 1017.3 |
| 20260502063009 | 2 | 165 | 4.8 | 8.0 | 0.00 | 0.00 | 0.00 | 56 | 1017.3 |
| 20260502062512 | 3 | 165 | 3.2 | 9.7 | 0.00 | 0.00 | 0.00 | 56 | 1017.2 |
| 20260502062006 | 3 | 175 | 4.8 | 9.7 | 0.00 | 0.00 | 0.00 | 56 | 1017.2 |
| 20260502061504 | 3 | 141 | 3.2 | 8.0 | 0.00 | 0.00 | 0.00 | 55 | 1017.2 |
| 20260502061003 | 4 | 155 | 4.8 | 9.7 | 0.00 | 0.00 | 0.00 | 53 | 1017.0 |
| 20260502060502 | 6 | 163 | 4.8 | 9.7 | 0.00 | 0.00 | 0.00 | 50 | 1017.0 |
| 20260502060101 | 7 | 350 | 3.2 | 6.4 | 0.00 | 0.00 | 0.00 | 51 | 1016.9 |
| 20260502055559 | 7 | 350 | 3.2 | 6.4 | 0.00 | 0.00 | 0.00 | 51 | 1016.9 |
| 20260502055058 | 7 | 350 | 1.6 | 4.8 | 0.00 | 0.00 | 0.00 | 51 | 1016.8 |
| 20260502054557 | 6 | 350 | 1.6 | 6.4 | 0.00 | 0.00 | 0.00 | 52 | 1016.8 |
| 20260502054059 | 6 | 299 | 1.6 | 8.0 | 0.00 | 0.00 | 0.00 | 52 | 1016.8 |
| 20260502053553 | 7 | 38 | 3.2 | 8.0 | 0.00 | 0.00 | 0.00 | 51 | 1016.7 |
| 20260502053102 | 7 | 51 | 1.6 | 6.4 | 0.00 | 0.00 | 0.00 | 50 | 1016.8 |
| 20260502052551 | 8 | 70 | 1.6 | 8.0 | 0.00 | 0.00 | 0.00 | 48 | 1016.8 |
| 20260502052049 | 8 | 33 | 0.0 | 9.7 | 0.00 | 0.00 | 0.00 | 47 | 1016.7 |
| 20260502051548 | 8 | 20 | 3.2 | 6.4 | 0.00 | 0.00 | 0.00 | 48 | 1016.6 |
| 20260502051047 | 8 | 14 | 3.2 | 6.4 | 0.00 | 0.00 | 0.00 | 48 | 1016.7 |
| 20260502050545 | 8 | 22 | 3.2 | 6.4 | 0.00 | 0.00 | 0.00 | 48 | 1016.6 |
| 20260502050043 | 8 | 3 | 3.2 | 8.0 | 0.00 | 0.00 | 0.00 | 48 | 1016.7 |
| 20260502045544 | 8 | 6 | 3.2 | 8.0 | 0.00 | 0.00 | 0.00 | 48 | 1016.7 |
| 20260502045043 | 8 | 359 | 3.2 | 8.0 | 0.00 | 0.00 | 0.00 | 48 | 1016.7 |
| 20260502044540 | 8 | 9 | 1.6 | 6.4 | 0.00 | 0.00 | 0.00 | 48 | 1016.7 |
| 20260502044038 | 8 | 9 | 3.2 | 6.4 | 0.00 | 0.00 | 0.00 | 48 | 1016.8 |
| 20260502043536 | 8 | 315 | 0.0 | 6.4 | 0.00 | 0.00 | 0.00 | 50 | 1016.8 |
| 20260502043036 | 8 | 41 | 1.6 | 6.4 | 0.00 | 0.00 | 0.00 | 51 | 1016.6 |
| 20260502042533 | 8 | 312 | 3.2 | 6.4 | 0.00 | 0.00 | 0.00 | 50 | 1016.6 |
| 20260502042033 | 8 | 326 | 1.6 | 8.0 | 0.00 | 0.00 | 0.00 | 50 | 1016.7 |
| 20260502041532 | 8 | 317 | 3.2 | 9.7 | 0.00 | 0.00 | 0.00 | 50 | 1016.6 |
| 20260502041029 | 8 | 328 | 4.8 | 9.7 | 0.00 | 0.00 | 0.00 | 50 | 1016.5 |
| 20260502040527 | 8 | 282 | 4.8 | 8.0 | 0.00 | 0.00 | 0.00 | 52 | 1016.5 |
| 20260502040026 | 8 | 288 | 3.2 | 6.4 | 0.00 | 0.00 | 0.00 | 51 | 1016.4 |
| 20260502035524 | 8 | 293 | 3.2 | 6.4 | 0.00 | 0.00 | 0.00 | 50 | 1016.4 |
| 20260502035123 | 8 | 295 | 0.0 | 6.4 | 0.00 | 0.00 | 0.00 | 49 | 1016.3 |
| 20260502034522 | 8 | 304 | 3.2 | 9.7 | 0.00 | 0.00 | 0.00 | 49 | 1016.2 |
| 20260502034021 | 8 | 300 | 4.8 | 9.7 | 0.00 | 0.00 | 0.00 | 48 | 1016.3 |
| 20260502033519 | 8 | 305 | 3.2 | 11.3 | 0.00 | 0.00 | 0.00 | 48 | 1016.2 |
| 20260502033024 | 9 | 307 | 4.8 | 12.9 | 0.00 | 0.00 | 0.00 | 48 | 1016.1 |
| 20260502032517 | 9 | 312 | 8.0 | 12.9 | 0.00 | 0.00 | 0.00 | 47 | 1016.0 |
| 20260502032019 | 9 | 328 | 4.8 | 9.7 | 0.00 | 0.00 | 0.00 | 48 | 1016.0 |
| 20260502031517 | 9 | 315 | 6.4 | 9.7 | 0.00 | 0.00 | 0.00 | 47 | 1015.9 |
| 20260502031016 | 9 | 317 | 4.8 | 9.7 | 0.00 | 0.00 | 0.00 | 47 | 1015.7 |
| 20260502030515 | 9 | 305 | 4.8 | 9.7 | 0.00 | 0.00 | 0.00 | 47 | 1015.7 |
| 20260502030013 | 9 | 330 | 1.6 | 9.7 | 0.00 | 0.00 | 0.00 | 47 | 1015.7 |
| 20260502025512 | 9 | 317 | 4.8 | 12.9 | 0.00 | 0.00 | 0.00 | 46 | 1015.6 |
| 20260502025010 | 10 | 313 | 4.8 | 12.9 | 0.00 | 0.00 | 0.00 | 45 | 1015.5 |
| 20260502024509 | 10 | 338 | 4.8 | 9.7 | 0.00 | 0.00 | 0.00 | 44 | 1015.5 |
| 20260502024011 | 10 | 315 | 3.2 | 8.0 | 0.00 | 0.00 | 0.00 | 43 | 1015.5 |
| 20260502023506 | 11 | 345 | 1.6 | 8.0 | 0.00 | 0.00 | 0.00 | 43 | 1015.5 |
| 20260502023005 | 11 | 315 | 3.2 | 8.0 | 0.00 | 0.00 | 0.00 | 41 | 1015.5 |
| 20260502022503 | 11 | 311 | 3.2 | 8.0 | 0.00 | 0.00 | 0.00 | 40 | 1015.5 |
| 20260502022003 | 12 | 345 | 1.6 | 8.0 | 0.00 | 0.00 | 0.00 | 41 | 1015.4 |
| 20260502021608 | 12 | 345 | 1.6 | 8.0 | 0.00 | 0.00 | 0.00 | 39 | 1015.3 |
| 20260502021058 | 12 | 6 | 3.2 | 8.0 | 0.00 | 0.00 | 0.00 | 37 | 1015.3 |
| 20260502020557 | 13 | 1 | 4.8 | 9.7 | 0.00 | 0.00 | 0.00 | 36 | 1015.2 |
| 20260502020056 | 13 | 3 | 4.8 | 9.7 | 0.00 | 0.00 | 0.00 | 36 | 1015.2 |
| 20260502015554 | 14 | 15 | 4.8 | 16.1 | 0.00 | 0.00 | 0.00 | 35 | 1015.2 |
| 20260502015053 | 15 | 1 | 8.0 | 17.7 | 0.00 | 0.00 | 0.00 | 33 | 1015.2 |
| 20260502014551 | 15 | 355 | 9.7 | 17.7 | 0.00 | 0.00 | 0.00 | 33 | 1015.2 |
| 20260502014049 | 15 | 355 | 9.7 | 17.7 | 0.00 | 0.00 | 0.00 | 32 | 1015.1 |
| 20260502013548 | 15 | 355 | 9.7 | 19.3 | 0.00 | 0.00 | 0.00 | 33 | 1015.1 |
| 20260502013047 | 15 | 332 | 12.9 | 22.5 | 0.00 | 0.00 | 0.00 | 32 | 1015.1 |
| 20260502012550 | 15 | 345 | 14.5 | 22.5 | 0.00 | 0.00 | 0.00 | 31 | 1015.1 |
| 20260502012044 | 15 | 345 | 12.9 | 22.5 | 0.00 | 0.00 | 0.00 | 31 | 1015.1 |
| 20260502011543 | 15 | 329 | 12.9 | 20.9 | 0.00 | 0.00 | 0.00 | 31 | 1015.0 |
| 20260502011041 | 15 | 338 | 11.3 | 22.5 | 0.00 | 0.00 | 0.00 | 31 | 1015.1 |
| 20260502010542 | 15 | 345 | 12.9 | 22.5 | 0.00 | 0.00 | 0.00 | 31 | 1015.0 |
| 20260502010038 | 16 | 355 | 11.3 | 22.5 | 0.00 | 0.00 | 0.00 | 31 | 1015.0 |
| 20260502005536 | 16 | 8 | 16.1 | 22.5 | 0.00 | 0.00 | 0.00 | 30 | 1015.0 |
| 20260502005035 | 16 | 23 | 14.5 | 24.1 | 0.00 | 0.00 | 0.00 | 30 | 1015.0 |
| 20260502004534 | 16 | 18 | 14.5 | 25.7 | 0.00 | 0.00 | 0.00 | 30 | 1015.0 |
| 20260502004034 | 16 | 24 | 16.1 | 25.7 | 0.00 | 0.00 | 0.00 | 30 | 1015.0 |
| 20260502003530 | 16 | 336 | 17.7 | 25.7 | 0.00 | 0.00 | 0.00 | 30 | 1015.0 |
| 20260502003029 | 16 | 330 | 17.7 | 25.7 | 0.00 | 0.00 | 0.00 | 31 | 1015.0 |
| 20260502002529 | 16 | 12 | 16.1 | 24.1 | 0.00 | 0.00 | 0.00 | 31 | 1015.0 |
| 20260502002026 | 16 | 7 | 16.1 | 24.1 | 0.00 | 0.00 | 0.00 | 31 | 1015.1 |
| 20260502001525 | 16 | 23 | 14.5 | 24.1 | 0.00 | 0.00 | 0.00 | 31 | 1015.1 |
| 20260502001023 | 16 | 341 | 14.5 | 24.1 | 0.00 | 0.00 | 0.00 | 31 | 1015.1 |
| 20260502000522 | 16 | 359 | 16.1 | 30.6 | 0.00 | 0.00 | 0.00 | 31 | 1015.1 |
| 20260502000021 | 16 | 14 | 19.3 | 30.6 | 0.00 | 0.00 | 0.00 | 30 | 1015.0 |
| 20260501235519 | 17 | 345 | 16.1 | 24.1 | 0.00 | 0.00 | 0.00 | 30 | 1014.9 |
| 20260501235018 | 17 | 7 | 14.5 | 22.5 | 0.00 | 0.00 | 0.00 | 29 | 1015.0 |
| 20260501234517 | 17 | 355 | 14.5 | 27.4 | 0.00 | 0.00 | 0.00 | 30 | 1015.0 |
| 20260501234015 | 17 | 7 | 14.5 | 27.4 | 0.00 | 0.00 | 0.00 | 29 | 1015.0 |
| 20260501233514 | 17 | 345 | 12.9 | 22.5 | 0.00 | 0.00 | 0.00 | 28 | 1014.9 |
| 20260501233012 | 17 | 355 | 14.5 | 22.5 | 0.00 | 0.00 | 0.00 | 29 | 1014.9 |
| 20260501232510 | 17 | 345 | 9.7 | 22.5 | 0.00 | 0.00 | 0.00 | 29 | 1014.9 |
| 20260501232008 | 17 | 3 | 14.5 | 22.5 | 0.00 | 0.00 | 0.00 | 29 | 1015.0 |
| 20260501231507 | 17 | 7 | 6.4 | 24.1 | 0.00 | 0.00 | 0.00 | 29 | 1015.0 |
| 20260501231006 | 17 | 321 | 11.3 | 24.1 | 0.00 | 0.00 | 0.00 | 29 | 1015.0 |
| 20260501230505 | 17 | 332 | 14.5 | 22.5 | 0.00 | 0.00 | 0.00 | 29 | 1015.1 |
| 20260501230004 | 17 | 306 | 12.9 | 19.3 | 0.00 | 0.00 | 0.00 | 29 | 1015.2 |
| 20260501225502 | 16 | 54 | 6.4 | 19.3 | 0.00 | 0.00 | 0.00 | 28 | 1015.1 |
| 20260501225101 | 16 | 331 | 12.9 | 22.5 | 0.00 | 0.00 | 0.00 | 28 | 1015.2 |
| 20260501224603 | 16 | 6 | 9.7 | 22.5 | 0.00 | 0.00 | 0.00 | 28 | 1015.2 |
| 20260501224057 | 16 | 324 | 6.4 | 17.7 | 0.00 | 0.00 | 0.00 | 27 | 1015.3 |
| 20260501223556 | 16 | 313 | 6.4 | 20.9 | 0.00 | 0.00 | 0.00 | 29 | 1015.3 |
| 20260501223103 | 16 | 313 | 11.3 | 20.9 | 0.00 | 0.00 | 0.00 | 31 | 1015.4 |
| 20260501222553 | 16 | 333 | 12.9 | 20.9 | 0.00 | 0.00 | 0.00 | 28 | 1015.5 |
| 20260501222053 | 16 | 3 | 11.3 | 22.5 | 0.00 | 0.00 | 0.00 | 28 | 1015.6 |
| 20260501221550 | 16 | 355 | 11.3 | 20.9 | 0.00 | 0.00 | 0.00 | 28 | 1015.6 |
| 20260501221051 | 16 | 355 | 12.9 | 27.4 | 0.00 | 0.00 | 0.00 | 29 | 1015.7 |
| 20260501220550 | 16 | 328 | 16.1 | 27.4 | 0.00 | 0.00 | 0.00 | 29 | 1015.8 |
| 20260501220048 | 16 | 335 | 11.3 | 19.3 | 0.00 | 0.00 | 0.00 | 29 | 1016.0 |
| 20260501215547 | 16 | 298 | 12.9 | 25.7 | 0.00 | 0.00 | 0.00 | 29 | 1016.1 |
| 20260501215044 | 16 | 1 | 16.1 | 24.1 | 0.00 | 0.00 | 0.00 | 29 | 1016.1 |
| 20260501214553 | 16 | 355 | 14.5 | 24.1 | 0.00 | 0.00 | 0.00 | 31 | 1016.1 |
| 20260501214041 | 16 | 335 | 11.3 | 22.5 | 0.00 | 0.00 | 0.00 | 30 | 1016.3 |
| 20260501213539 | 16 | 355 | 8.0 | 24.1 | 0.00 | 0.00 | 0.00 | 29 | 1016.2 |
| 20260501213037 | 16 | 355 | 14.5 | 25.7 | 0.00 | 0.00 | 0.00 | 30 | 1016.2 |
| 20260501212536 | 16 | 359 | 17.7 | 25.7 | 0.00 | 0.00 | 0.00 | 30 | 1016.3 |
| 20260501212035 | 16 | 327 | 14.5 | 30.6 | 0.00 | 0.00 | 0.00 | 30 | 1016.3 |
| 20260501211537 | 16 | 355 | 11.3 | 30.6 | 0.00 | 0.00 | 0.00 | 31 | 1016.3 |
| 20260501211031 | 17 | 350 | 9.7 | 22.5 | 0.00 | 0.00 | 0.00 | 31 | 1016.3 |
| 20260501210529 | 17 | 26 | 8.0 | 25.7 | 0.00 | 0.00 | 0.00 | 31 | 1016.4 |
| 20260501210028 | 17 | 359 | 6.4 | 25.7 | 0.00 | 0.00 | 0.00 | 31 | 1016.4 |
| 20260501205527 | 17 | 53 | 17.7 | 25.7 | 0.00 | 0.00 | 0.00 | 32 | 1016.4 |
| 20260501205025 | 16 | 355 | 9.7 | 22.5 | 0.00 | 0.00 | 0.00 | 34 | 1016.4 |
| 20260501204533 | 16 | 310 | 8.0 | 16.1 | 0.00 | 0.00 | 0.00 | 33 | 1016.4 |
| 20260501204022 | 16 | 319 | 6.4 | 25.7 | 0.00 | 0.00 | 0.00 | 34 | 1016.4 |
| 20260501203521 | 16 | 303 | 16.1 | 25.7 | 0.00 | 0.00 | 0.00 | 33 | 1016.5 |
| 20260501203021 | 16 | 345 | 4.8 | 20.9 | 0.00 | 0.00 | 0.00 | 33 | 1016.3 |
| 20260501202520 | 16 | 2 | 8.0 | 20.9 | 0.00 | 0.00 | 0.00 | 34 | 1016.4 |
| 20260501202019 | 16 | 336 | 9.7 | 19.3 | 0.00 | 0.00 | 0.00 | 35 | 1016.5 |
| 20260501201517 | 16 | 159 | 1.6 | 22.5 | 0.00 | 0.00 | 0.00 | 34 | 1016.5 |
| 20260501201017 | 16 | 288 | 8.0 | 16.1 | 0.00 | 0.00 | 0.00 | 35 | 1016.6 |
| 20260501200514 | 16 | 355 | 4.8 | 17.7 | 0.00 | 0.00 | 0.00 | 35 | 1016.7 |
| 20260501200019 | 16 | 336 | 8.0 | 19.3 | 0.00 | 0.00 | 0.00 | 34 | 1016.6 |
| 20260501195511 | 16 | 4 | 11.3 | 20.9 | 0.00 | 0.00 | 0.00 | 35 | 1016.6 |
| 20260501195010 | 16 | 350 | 12.9 | 20.9 | 0.00 | 0.00 | 0.00 | 35 | 1016.7 |
| 20260501194510 | 16 | 34 | 11.3 | 20.9 | 0.00 | 0.00 | 0.00 | 36 | 1016.7 |
| 20260501194006 | 16 | 340 | 12.9 | 20.9 | 0.00 | 0.00 | 0.00 | 35 | 1016.7 |
| 20260501193506 | 15 | 40 | 8.0 | 22.5 | 0.00 | 0.00 | 0.00 | 35 | 1016.8 |
| 20260501193004 | 15 | 39 | 9.7 | 22.5 | 0.00 | 0.00 | 0.00 | 35 | 1016.9 |
| 20260501192503 | 15 | 6 | 12.9 | 20.9 | 0.00 | 0.00 | 0.00 | 36 | 1016.8 |
| 20260501192001 | 15 | 283 | 12.9 | 19.3 | 0.00 | 0.00 | 0.00 | 35 | 1016.8 |
| 20260501191559 | 15 | 350 | 1.6 | 16.1 | 0.00 | 0.00 | 0.00 | 35 | 1016.8 |
| 20260501191058 | 15 | 9 | 8.0 | 24.1 | 0.00 | 0.00 | 0.00 | 35 | 1016.8 |
| 20260501190557 | 15 | 3 | 19.3 | 24.1 | 0.00 | 0.00 | 0.00 | 36 | 1016.8 |
| 20260501185553 | 15 | 27 | 8.0 | 19.3 | 0.00 | 0.00 | 0.00 | 36 | 1017.0 |
| 20260501185052 | 15 | 313 | 11.3 | 20.9 | 0.00 | 0.00 | 0.00 | 37 | 1017.1 |
| 20260501184550 | 15 | 238 | 4.8 | 20.9 | 0.00 | 0.00 | 0.00 | 35 | 1017.2 |
| 20260501184051 | 15 | 355 | 4.8 | 16.1 | 0.00 | 0.00 | 0.00 | 35 | 1017.2 |
| 20260501183548 | 15 | 46 | 11.3 | 19.3 | 0.00 | 0.00 | 0.00 | 37 | 1017.2 |
| 20260501183047 | 14 | 20 | 8.0 | 20.9 | 0.00 | 0.00 | 0.00 | 38 | 1017.2 |
| 20260501182550 | 14 | 289 | 11.3 | 20.9 | 0.00 | 0.00 | 0.00 | 37 | 1017.3 |
| 20260501182044 | 14 | 333 | 8.0 | 20.9 | 0.00 | 0.00 | 0.00 | 37 | 1017.4 |
| 20260501181549 | 14 | 350 | 11.3 | 24.1 | 0.00 | 0.00 | 0.00 | 38 | 1017.4 |
| 20260501181043 | 15 | 3 | 14.5 | 24.1 | 0.00 | 0.00 | 0.00 | 38 | 1017.3 |
| 20260501180539 | 14 | 90 | 6.4 | 22.5 | 0.00 | 0.00 | 0.00 | 38 | 1017.5 |
| 20260501180038 | 14 | 18 | 8.0 | 22.5 | 0.00 | 0.00 | 0.00 | 39 | 1017.5 |
| 20260501175537 | 14 | 355 | 9.7 | 17.7 | 0.00 | 0.00 | 0.00 | 38 | 1017.5 |
| 20260501175036 | 14 | 53 | 8.0 | 17.7 | 0.00 | 0.00 | 0.00 | 39 | 1017.6 |
| 20260501174541 | 14 | 355 | 4.8 | 16.1 | 0.00 | 0.00 | 0.00 | 40 | 1017.6 |
| 20260501174033 | 13 | 270 | 3.2 | 20.9 | 0.00 | 0.00 | 0.00 | 39 | 1017.6 |
| 20260501173532 | 14 | 17 | 8.0 | 20.9 | 0.00 | 0.00 | 0.00 | 38 | 1017.7 |
| 20260501173031 | 14 | 154 | 0.0 | 14.5 | 0.00 | 0.00 | 0.00 | 39 | 1017.7 |
| 20260501172531 | 13 | 19 | 1.6 | 14.5 | 0.00 | 0.00 | 0.00 | 40 | 1017.7 |
| 20260501172029 | 13 | 336 | 1.6 | 17.7 | 0.00 | 0.00 | 0.00 | 38 | 1017.9 |
| 20260501171527 | 14 | 24 | 9.7 | 17.7 | 0.00 | 0.00 | 0.00 | 39 | 1017.9 |